Location: G�ndlingen
(48.0142°N, 7.6396°E)
Time: 02:42:06
(UTC+00:00)

Cosmos 1892 - Pass Details

Date: 05 July 2020
Orbit: 505 x 523 km, 82.5° (Epoch: 04 August)

Event Time Altitude Azimuth Distance (km) Brightness Sun altitude
Exits shadow 22:41:56 20° 234° (SW) 1,231 4.4 -18.4°
Maximum altitude 22:43:57 33° 286° (WNW) 874 4.1 -18.4°
Drops below altitude 10° 22:47:26 10° 352° (N) 1,742 6.6 -18.5°
Sets 22:49:44 0° 2° (N) 2,637 7.8 -18.6°
